When you browse on this site, cookies collect data to enhance your experience and personalize the content and advertising you see.
Visit our Privacy Policy to learn more. By continuing to use the site, you agree to this use of cookies and data.
  • en Suisse
  • Liste des pays
  • À 7 jours
  • Température de l'eau
  • Carte satellitaire
  • Carte météo
  • Widgets météo
  • user-avatar
    Se connecter

    Météo par heure à Graz

    Ce jour, 27 Mai, Lundi

    Heure Température Précipitation Vent Pression Humidité
    00:00 +15°C° 0 mm 1 m/s 722 mmHg 87%
    01:00 +15°C° 0 mm 1 m/s 722 mmHg 88%
    02:00 +15°C° 0.1 mm 1 m/s 721 mmHg 89%
    03:00 +14°C° 0.1 mm 0 m/s 721 mmHg 89%
    04:00 +13°C° 0.1 mm 0 m/s 721 mmHg 90%
    05:00 +14°C° 0.1 mm 0 m/s 721 mmHg 88%
    06:00 +15°C° 0.1 mm 0 m/s 721 mmHg 86%
    07:00 +16°C° 0.1 mm 0 m/s 721 mmHg 84%
    08:00 +19°C° 0.1 mm 1 m/s 721 mmHg 80%
    09:00 +20°C° 0.1 mm 1 m/s 721 mmHg 76%
    10:00 +21°C° 0.1 mm 1 m/s 721 mmHg 72%
    11:00 +20°C° 0.3 mm 2 m/s 720 mmHg 73%
    12:00 +20°C° 0.3 mm 2 m/s 720 mmHg 74%
    13:00 +20°C° 0.3 mm 2 m/s 720 mmHg 74%
    14:00 +19°C° 1 mm 2 m/s 720 mmHg 80%
    15:00 +18°C° 1 mm 2 m/s 719 mmHg 85%
    16:00 +18°C° 1 mm 1 m/s 719 mmHg 91%
    17:00 +16°C° 0.7 mm 1 m/s 718 mmHg 93%
    18:00 +16°C° 0.7 mm 1 m/s 718 mmHg 94%
    19:00 +15°C° 0.7 mm 1 m/s 718 mmHg 96%
    20:00 +15°C° 0.2 mm 1 m/s 718 mmHg 96%
    21:00 +15°C° 0.2 mm 1 m/s 718 mmHg 97%
    22:00 +14°C° 0.2 mm 1 m/s 717 mmHg 97%
    23:00 +13°C° 0 mm 0 m/s 717 mmHg 97%

    Demain, 28 Mai, Mardi

    Heure Température Précipitation Vent Pression Humidité
    00:00 +12°C° 0 mm 0 m/s 717 mmHg 97%
    01:00 +12°C° 0 mm 0 m/s 716 mmHg 97%
    02:00 +11°C° 0 mm 0 m/s 716 mmHg 97%
    03:00 +11°C° 0 mm 0 m/s 716 mmHg 97%
    04:00 +11°C° 0 mm 0 m/s 716 mmHg 97%
    05:00 +12°C° 0 mm 0 m/s 715 mmHg 94%
    06:00 +13°C° 0 mm 0 m/s 715 mmHg 91%
    07:00 +14°C° 0 mm 0 m/s 715 mmHg 88%
    08:00 +15°C° 0.1 mm 0 m/s 715 mmHg 83%
    09:00 +17°C° 0.1 mm 0 m/s 716 mmHg 78%
    10:00 +18°C° 0.1 mm 0 m/s 716 mmHg 72%
    11:00 +21°C° 0.5 mm 1 m/s 716 mmHg 70%
    12:00 +21°C° 0.5 mm 1 m/s 716 mmHg 68%
    13:00 +22°C° 0.5 mm 1 m/s 715 mmHg 67%
    14:00 +21°C° 0.9 mm 1 m/s 715 mmHg 68%
    15:00 +20°C° 0.9 mm 2 m/s 716 mmHg 69%
    16:00 +20°C° 0.9 mm 2 m/s 716 mmHg 70%
    17:00 +18°C° 0.4 mm 2 m/s 716 mmHg 75%
    18:00 +18°C° 0.4 mm 1 m/s 716 mmHg 79%
    19:00 +16°C° 0.4 mm 1 m/s 717 mmHg 84%
    20:00 +15°C° 0.4 mm 1 m/s 717 mmHg 86%
    21:00 +14°C° 0.4 mm 1 m/s 718 mmHg 88%
    22:00 +14°C° 0.4 mm 1 m/s 719 mmHg 90%
    23:00 +13°C° 0.3 mm 1 m/s 719 mmHg 90%

    Après-demain, 29 Mai, Mercredi

    Heure Température Précipitation Vent Pression Humidité
    00:00 +13°C° 0.3 mm 1 m/s 719 mmHg 90%
    01:00 +13°C° 0.3 mm 1 m/s 719 mmHg 90%
    02:00 +12°C° 0.2 mm 2 m/s 719 mmHg 90%
    03:00 +12°C° 0.2 mm 2 m/s 720 mmHg 89%
    04:00 +12°C° 0.2 mm 2 m/s 720 mmHg 89%
    05:00 +12°C° 0.9 mm 2 m/s 720 mmHg 90%
    06:00 +10°C° 0.9 mm 2 m/s 720 mmHg 91%
    07:00 +10°C° 0.9 mm 2 m/s 721 mmHg 93%
    08:00 +12°C° 1 mm 2 m/s 721 mmHg 91%
    09:00 +12°C° 1 mm 2 m/s 721 mmHg 90%
    10:00 +12°C° 1 mm 2 m/s 722 mmHg 89%
    11:00 +13°C° 1 mm 1 m/s 722 mmHg 89%
    12:00 +13°C° 1 mm 1 m/s 722 mmHg 88%
    13:00 +13°C° 1 mm 1 m/s 722 mmHg 87%
    14:00 +13°C° 0.5 mm 1 m/s 722 mmHg 88%
    15:00 +13°C° 0.5 mm 1 m/s 723 mmHg 89%
    16:00 +13°C° 0.5 mm 1 m/s 723 mmHg 90%
    17:00 +13°C° 0.3 mm 1 m/s 723 mmHg 91%
    18:00 +12°C° 0.3 mm 1 m/s 723 mmHg 92%
    19:00 +12°C° 0.3 mm 1 m/s 723 mmHg 93%
    20:00 +12°C° 0.3 mm 1 m/s 724 mmHg 93%
    21:00 +12°C° 0.3 mm 1 m/s 724 mmHg 94%
    22:00 +11°C° 0.3 mm 1 m/s 724 mmHg 94%
    23:00 +11°C° 0.2 mm 1 m/s 724 mmHg 94%

    30 Mai, Jeudi

    Heure Température Précipitation Vent Pression Humidité
    00:00 +11°C° 0.2 mm 1 m/s 724 mmHg 94%
    01:00 +11°C° 0.2 mm 1 m/s 725 mmHg 94%
    02:00 +11°C° 0.4 mm 1 m/s 725 mmHg 94%
    03:00 +11°C° 0.4 mm 1 m/s 725 mmHg 94%
    04:00 +11°C° 0.4 mm 1 m/s 725 mmHg 94%
    05:00 +11°C° 0.3 mm 1 m/s 725 mmHg 93%
    06:00 +12°C° 0.3 mm 1 m/s 725 mmHg 92%
    07:00 +13°C° 0.3 mm 1 m/s 726 mmHg 91%
    08:00 +14°C° 0.1 mm 1 m/s 726 mmHg 82%
    09:00 +16°C° 0.1 mm 2 m/s 726 mmHg 74%
    10:00 +17°C° 0.1 mm 2 m/s 726 mmHg 65%
    11:00 +18°C° 0 mm 2 m/s 726 mmHg 58%
    12:00 +20°C° 0 mm 2 m/s 726 mmHg 50%
    13:00 +21°C° 0 mm 2 m/s 726 mmHg 43%
    14:00 +21°C° 0.1 mm 2 m/s 726 mmHg 47%
    15:00 +21°C° 0.1 mm 1 m/s 726 mmHg 50%
    16:00 +21°C° 0.1 mm 1 m/s 726 mmHg 54%
    17:00 +20°C° 0.3 mm 1 m/s 726 mmHg 63%
    18:00 +18°C° 0.3 mm 1 m/s 726 mmHg 73%
    19:00 +15°C° 0.3 mm 0 m/s 726 mmHg 83%
    20:00 +15°C° 0.1 mm 1 m/s 726 mmHg 85%
    21:00 +14°C° 0.1 mm 1 m/s 727 mmHg 87%
    22:00 +13°C° 0.1 mm 1 m/s 727 mmHg 89%
    23:00 +13°C° 0 mm 1 m/s 727 mmHg 89%

    31 Mai, Vendredi

    Heure Température Précipitation Vent Pression Humidité
    00:00 +12°C° 0 mm 1 m/s 726 mmHg 89%
    01:00 +12°C° 0 mm 1 m/s 726 mmHg 90%
    02:00 +12°C° 0 mm 1 m/s 726 mmHg 89%
    03:00 +12°C° 0 mm 1 m/s 726 mmHg 88%
    04:00 +12°C° 0 mm 1 m/s 725 mmHg 87%
    05:00 +14°C° 0 mm 1 m/s 725 mmHg 84%
    06:00 +15°C° 0 mm 1 m/s 725 mmHg 81%
    07:00 +16°C° 0 mm 1 m/s 725 mmHg 78%
    08:00 +16°C° 0.3 mm 1 m/s 725 mmHg 78%
    09:00 +18°C° 0.3 mm 1 m/s 725 mmHg 79%
    10:00 +18°C° 0.3 mm 1 m/s 725 mmHg 80%
    11:00 +19°C° 0.2 mm 1 m/s 725 mmHg 73%
    12:00 +20°C° 0.2 mm 2 m/s 725 mmHg 66%
    13:00 +21°C° 0.2 mm 3 m/s 726 mmHg 59%
    14:00 +21°C° 0.2 mm 3 m/s 726 mmHg 56%
    15:00 +21°C° 0.2 mm 4 m/s 726 mmHg 53%
    16:00 +20°C° 0.2 mm 5 m/s 727 mmHg 50%
    17:00 +18°C° 0 mm 4 m/s 727 mmHg 55%
    18:00 +15°C° 0 mm 4 m/s 728 mmHg 60%
    19:00 +13°C° 0 mm 3 m/s 728 mmHg 65%
    20:00 +12°C° 0 mm 3 m/s 729 mmHg 68%
    21:00 +12°C° 0 mm 2 m/s 730 mmHg 70%
    22:00 +10°C° 0 mm 2 m/s 730 mmHg 72%
    23:00 +9°C° 0 mm 2 m/s 731 mmHg 74%

    1 Juin, Samedi

    Heure Température Précipitation Vent Pression Humidité
    00:00 +8°C° 0 mm 2 m/s 731 mmHg 76%
    01:00 +7°C° 0 mm 2 m/s 731 mmHg 78%
    02:00 +6°C° 0 mm 2 m/s 731 mmHg 79%
    03:00 +6°C° 0 mm 2 m/s 731 mmHg 81%
    04:00 +6°C° 0 mm 1 m/s 731 mmHg 82%
    05:00 +7°C° 0 mm 2 m/s 731 mmHg 72%
    06:00 +9°C° 0 mm 3 m/s 732 mmHg 63%
    07:00 +11°C° 0 mm 3 m/s 732 mmHg 53%
    08:00 +12°C° 0 mm 3 m/s 732 mmHg 47%
    09:00 +14°C° 0 mm 4 m/s 732 mmHg 41%
    10:00 +17°C° 0 mm 4 m/s 732 mmHg 35%
    11:00 +17°C° 0 mm 4 m/s 732 mmHg 34%
    12:00 +18°C° 0 mm 4 m/s 731 mmHg 32%
    13:00 +19°C° 0 mm 4 m/s 731 mmHg 31%
    14:00 +19°C° 0 mm 4 m/s 731 mmHg 32%
    15:00 +19°C° 0 mm 4 m/s 731 mmHg 34%
    16:00 +19°C° 0 mm 5 m/s 731 mmHg 36%
    17:00 +18°C° 0 mm 4 m/s 731 mmHg 43%
    18:00 +16°C° 0 mm 3 m/s 731 mmHg 50%
    19:00 +15°C° 0 mm 2 m/s 731 mmHg 57%
    20:00 +13°C° 0 mm 2 m/s 731 mmHg 63%
    21:00 +10°C° 0 mm 2 m/s 732 mmHg 69%
    22:00 +9°C° 0 mm 1 m/s 732 mmHg 75%
    23:00 +9°C° 0 mm 1 m/s 732 mmHg 78%
    Voir plus